TITAN 3C TRANSTAGE DEB, 43517

Orbit data source: Space-Track

TITAN 3C TRANSTAGE DEB, 43517 is space debris in GEO originally from a launch on Sun, 09 Feb 1969 UTC launched from the Air Force Eastern Test Range (AFETR). Debris objects in space refer to the collection of defunct objects orbiting the Earth. Examples of debris include non-operational satellites, rocket bodies, and fragments generated from explosions, collisions, or faulty payload assembly.

Loading next visibility...
Identifier
43517, 1969-013V
Orbit
GEO
Country
Flag of USUS
Related business
Manufacturer
Martin Marietta
Mission
Spacecraft
Bus & Motor
Unknown
Mass
Unknown
Launch date (UTC)
1969-02-09 (57 years ago)
Launch vehicle
Unknown
Launch site
Air Force Eastern Test Range (AFETR)
Object type
Payload
Rocket body
Debris
Shape & HBR
Unknown shape, 1.1 m
Radar Cross Section
RCS unknown

Expand to show TLE details & history
Last TLE update: 1 month ago

TLE from 1 month ago
0 TITAN 3C TRANSTAGE DEB
1 43517U 69013V   25244.78020130 -.00000073  00000-0  00000-0 0  9998
2 43517   0.6741 138.7956 0076505 137.7640  82.5780  0.94334192 25136
Epoch: 2025-09-01T18:43Z
TLE epoch observation values (Epoch: 2025-09-01T18:43:29.392Z)
Latitude
-0.46016°
Longitude
97.94448°
Altitude
37,495.227 km
Speed
3.016 km/s
True Right ascension
23h 59m 59s
True Declination
0° 27' 35"
Sunlit
Object was in daylight at epoch
Visualization orbit readout
Latitude
Unknown
Longitude
Unknown
Altitude
Unknown
Speed
Unknown
Apparent Right ascension
Unknown
Apparent Declination
Unknown
Sunlit
N/A
Visualization observer readout
Local Sidereal Time
01:18:12
Azimuth
Unknown
Elevation
Unknown
Doppler factor
Unknown
Orbital elements
Apogee altitude
37,874.843 km
Perigee altitude
37,202.87 km
Semi-major axis
43,916.994 km
Eccentricity
0.00765
Inclination
0.6741°
RAAN
138.7956°
Arg. of periapsis
137.764°
True anomaly
83.44838°
Mean anomaly
82.578°
Eccentric anomaly
83.01309°
Mean motion
0.23583 °/min
Orbital period
1,526.54 mins
BSTAR
0
Loading maneuver chart data...
Computing Atmospheric mass density...

Documentation

Showing up to 5 results
|